owner,sensor,date,latitude,longitude,relative_humidity,qcFlag 
DISL,ioos:station:DISL:CATA:1,2014-04-01T00:00:00Z,30.3085,-88.1395,64.82,1111122 
DISL,ioos:station:DISL:CATA:1,2014-04-01T00:30:00Z,30.3085,-88.1395,72.16,1111122 
DISL,ioos:station:DISL:CATA:1,2014-04-01T01:00:00Z,30.3085,-88.1395,74.63,1111122 
DISL,ioos:station:DISL:CATA:1,2014-04-01T01:30:00Z,30.3085,-88.1395,75.25,1111122 
DISL,ioos:station:DISL:CATA:1,2014-04-01T02:00:00Z,30.3085,-88.1395,73.36,1111122 
DISL,ioos:station:DISL:CATA:1,2014-04-01T02:30:00Z,30.3085,-88.1395,72.75,1111122 
DISL,ioos:station:DISL:CATA:1,2014-04-01T03:00:00Z,30.3085,-88.1395,72.92,1111122 
DISL,ioos:station:DISL:CATA:1,2014-04-01T03:30:00Z,30.3085,-88.1395,74.94,1111122 
DISL,ioos:station:DISL:CATA:1,2014-04-01T04:00:00Z,30.3085,-88.1395,75.59,1111122 
DISL,ioos:station:DISL:CATA:1,2014-04-01T04:30:00Z,30.3085,-88.1395,78.33,1111122 
DISL,ioos:station:DISL:CATA:1,2014-04-01T05:00:00Z,30.3085,-88.1395,79.98,1111122 
DISL,ioos:station:DISL:CATA:1,2014-04-01T05:30:00Z,30.3085,-88.1395,81.9,1111122 
DISL,ioos:station:DISL:CATA:1,2014-04-01T06:30:00Z,30.3085,-88.1395,85.3,1111122 
DISL,ioos:station:DISL:CATA:1,2014-04-01T07:00:00Z,30.3085,-88.1395,85.3,1111122 
DISL,ioos:station:DISL:CATA:1,2014-04-01T07:30:00Z,30.3085,-88.1395,85.3,1111122 
DISL,ioos:station:DISL:CATA:1,2014-04-01T08:00:00Z,30.3085,-88.1395,86.8,1111122 
DISL,ioos:station:DISL:CATA:1,2014-04-01T08:30:00Z,30.3085,-88.1395,96.0,1111122 
DISL,ioos:station:DISL:CATA:1,2014-04-01T09:00:00Z,30.3085,-88.1395,94.3,1111122 
DISL,ioos:station:DISL:CATA:1,2014-04-01T09:30:00Z,30.3085,-88.1395,92.0,1111122 
DISL,ioos:station:DISL:CATA:1,2014-04-01T10:00:00Z,30.3085,-88.1395,86.5,1111122 
DISL,ioos:station:DISL:CATA:1,2014-04-01T10:30:00Z,30.3085,-88.1395,93.4,1111122 
DISL,ioos:station:DISL:CATA:1,2014-04-01T11:00:00Z,30.3085,-88.1395,92.6,1111122 
DISL,ioos:station:DISL:CATA:1,2014-04-01T11:30:00Z,30.3085,-88.1395,94.2,1111122 
DISL,ioos:station:DISL:CATA:1,2014-04-01T12:00:00Z,30.3085,-88.1395,92.1,1111122 
DISL,ioos:station:DISL:CATA:1,2014-04-01T12:30:00Z,30.3085,-88.1395,93.2,1111122 
DISL,ioos:station:DISL:CATA:1,2014-04-01T13:00:00Z,30.3085,-88.1395,95.7,1111122 
DISL,ioos:station:DISL:CATA:1,2014-04-01T13:30:00Z,30.3085,-88.1395,85.9,1111122 
DISL,ioos:station:DISL:CATA:1,2014-04-01T14:00:00Z,30.3085,-88.1395,86.3,1111122 
DISL,ioos:station:DISL:CATA:1,2014-04-01T14:30:00Z,30.3085,-88.1395,82.7,1111122 
DISL,ioos:station:DISL:CATA:1,2014-04-01T15:00:00Z,30.3085,-88.1395,83.4,1111122 
DISL,ioos:station:DISL:CATA:1,2014-04-01T15:30:00Z,30.3085,-88.1395,82.1,1111122 
DISL,ioos:station:DISL:CATA:1,2014-04-01T16:00:00Z,30.3085,-88.1395,83.3,1111122 
DISL,ioos:station:DISL:CATA:1,2014-04-01T16:30:00Z,30.3085,-88.1395,82.9,1111122 
DISL,ioos:station:DISL:CATA:1,2014-04-01T17:00:00Z,30.3085,-88.1395,75.02,1111122 
DISL,ioos:station:DISL:CATA:1,2014-04-01T17:30:00Z,30.3085,-88.1395,77.18,1111122 
DISL,ioos:station:DISL:CATA:1,2014-04-01T18:00:00Z,30.3085,-88.1395,80.6,1111122 
DISL,ioos:station:DISL:CATA:1,2014-04-01T18:30:00Z,30.3085,-88.1395,79.81,1111122 
DISL,ioos:station:DISL:CATA:1,2014-04-01T19:00:00Z,30.3085,-88.1395,72.34,1111122 
DISL,ioos:station:DISL:CATA:1,2014-04-01T19:30:00Z,30.3085,-88.1395,72.48,1111122 
DISL,ioos:station:DISL:CATA:1,2014-04-01T20:00:00Z,30.3085,-88.1395,73.89,1111122 
DISL,ioos:station:DISL:CATA:1,2014-04-01T20:30:00Z,30.3085,-88.1395,71.21,1111122 
DISL,ioos:station:DISL:CATA:1,2014-04-01T21:00:00Z,30.3085,-88.1395,72.52,1111122 
DISL,ioos:station:DISL:CATA:1,2014-04-01T21:30:00Z,30.3085,-88.1395,73.92,1111122 
DISL,ioos:station:DISL:CATA:1,2014-04-01T22:00:00Z,30.3085,-88.1395,69.88,1111122 
DISL,ioos:station:DISL:CATA:1,2014-04-01T22:30:00Z,30.3085,-88.1395,71.45,1111122 
DISL,ioos:station:DISL:CATA:1,2014-04-01T23:00:00Z,30.3085,-88.1395,72.48,1111122 
DISL,ioos:station:DISL:CATA:1,2014-04-01T23:30:00Z,30.3085,-88.1395,75.33,1111122 
DISL,ioos:station:DISL:CATA:1,2014-04-02T00:00:00Z,30.3085,-88.1395,77.84,1111122 
DISL,ioos:station:DISL:CATA:1,2014-04-02T00:30:00Z,30.3085,-88.1395,81.2,1111122 
DISL,ioos:station:DISL:CATA:1,2014-04-02T01:00:00Z,30.3085,-88.1395,83.5,1111122 
DISL,ioos:station:DISL:CATA:1,2014-04-02T01:30:00Z,30.3085,-88.1395,83.9,1111122 
DISL,ioos:station:DISL:CATA:1,2014-04-02T02:00:00Z,30.3085,-88.1395,84.8,1111122 
DISL,ioos:station:DISL:CATA:1,2014-04-02T02:30:00Z,30.3085,-88.1395,85.3,1111122 
DISL,ioos:station:DISL:CATA:1,2014-04-02T03:00:00Z,30.3085,-88.1395,85.2,1111122 
DISL,ioos:station:DISL:CATA:1,2014-04-02T03:30:00Z,30.3085,-88.1395,85.4,1111122 
DISL,ioos:station:DISL:CATA:1,2014-04-02T04:00:00Z,30.3085,-88.1395,86.5,1111122 
DISL,ioos:station:DISL:CATA:1,2014-04-02T04:30:00Z,30.3085,-88.1395,89.9,1111122 
DISL,ioos:station:DISL:CATA:1,2014-04-02T05:00:00Z,30.3085,-88.1395,95.5,1111122 
DISL,ioos:station:DISL:CATA:1,2014-04-02T05:30:00Z,30.3085,-88.1395,96.4,1111122 
DISL,ioos:station:DISL:CATA:1,2014-04-02T06:30:00Z,30.3085,-88.1395,98.5,1111122 
DISL,ioos:station:DISL:CATA:1,2014-04-02T07:00:00Z,30.3085,-88.1395,99.2,1111122 
DISL,ioos:station:DISL:CATA:1,2014-04-02T07:30:00Z,30.3085,-88.1395,99.3,1111122 
DISL,ioos:station:DISL:CATA:1,2014-04-02T08:00:00Z,30.3085,-88.1395,99.2,1111122 
DISL,ioos:station:DISL:CATA:1,2014-04-02T08:30:00Z,30.3085,-88.1395,98.8,1111122 
DISL,ioos:station:DISL:CATA:1,2014-04-02T09:00:00Z,30.3085,-88.1395,98.3,1111122 
DISL,ioos:station:DISL:CATA:1,2014-04-02T09:30:00Z,30.3085,-88.1395,98.2,1111122 
DISL,ioos:station:DISL:CATA:1,2014-04-02T10:00:00Z,30.3085,-88.1395,99.0,1111122 
DISL,ioos:station:DISL:CATA:1,2014-04-02T10:30:00Z,30.3085,-88.1395,99.6,1111122 
DISL,ioos:station:DISL:CATA:1,2014-04-02T11:00:00Z,30.3085,-88.1395,99.7,1111122 
DISL,ioos:station:DISL:CATA:1,2014-04-02T11:30:00Z,30.3085,-88.1395,99.6,1111122 
DISL,ioos:station:DISL:CATA:1,2014-04-02T12:00:00Z,30.3085,-88.1395,99.6,1111122 
DISL,ioos:station:DISL:CATA:1,2014-04-02T12:30:00Z,30.3085,-88.1395,99.2,1111122 
DISL,ioos:station:DISL:CATA:1,2014-04-02T13:00:00Z,30.3085,-88.1395,96.2,1111122 
DISL,ioos:station:DISL:CATA:1,2014-04-02T13:30:00Z,30.3085,-88.1395,94.0,1111122 
DISL,ioos:station:DISL:CATA:1,2014-04-02T14:00:00Z,30.3085,-88.1395,87.8,1111122 
DISL,ioos:station:DISL:CATA:1,2014-04-02T14:30:00Z,30.3085,-88.1395,85.0,1111122 
DISL,ioos:station:DISL:CATA:1,2014-04-02T15:00:00Z,30.3085,-88.1395,85.5,1111122 
DISL,ioos:station:DISL:CATA:1,2014-04-02T15:30:00Z,30.3085,-88.1395,85.0,1111122 
DISL,ioos:station:DISL:CATA:1,2014-04-02T16:00:00Z,30.3085,-88.1395,82.6,1111122 
DISL,ioos:station:DISL:CATA:1,2014-04-02T16:30:00Z,30.3085,-88.1395,77.66,1111122 
DISL,ioos:station:DISL:CATA:1,2014-04-02T17:00:00Z,30.3085,-88.1395,75.43,1111122 
DISL,ioos:station:DISL:CATA:1,2014-04-02T17:30:00Z,30.3085,-88.1395,75.33,1111122 
DISL,ioos:station:DISL:CATA:1,2014-04-02T18:00:00Z,30.3085,-88.1395,76.73,1111122 
DISL,ioos:station:DISL:CATA:1,2014-04-02T18:30:00Z,30.3085,-88.1395,75.91,1111122 
DISL,ioos:station:DISL:CATA:1,2014-04-02T19:00:00Z,30.3085,-88.1395,75.43,1111122 
DISL,ioos:station:DISL:CATA:1,2014-04-02T19:30:00Z,30.3085,-88.1395,81.6,1111122 
DISL,ioos:station:DISL:CATA:1,2014-04-02T20:00:00Z,30.3085,-88.1395,82.6,1111122 
DISL,ioos:station:DISL:CATA:1,2014-04-02T20:30:00Z,30.3085,-88.1395,87.3,1111122 
DISL,ioos:station:DISL:CATA:1,2014-04-02T21:00:00Z,30.3085,-88.1395,87.4,1111122 
DISL,ioos:station:DISL:CATA:1,2014-04-02T21:30:00Z,30.3085,-88.1395,87.1,1111122 
DISL,ioos:station:DISL:CATA:1,2014-04-02T22:00:00Z,30.3085,-88.1395,89.3,1111122 
DISL,ioos:station:DISL:CATA:1,2014-04-02T22:30:00Z,30.3085,-88.1395,88.8,1111122 
DISL,ioos:station:DISL:CATA:1,2014-04-02T23:00:00Z,30.3085,-88.1395,94.3,1111122 
DISL,ioos:station:DISL:CATA:1,2014-04-02T23:30:00Z,30.3085,-88.1395,95.4,1111122 
DISL,ioos:station:DISL:CATA:1,2014-04-03T00:00:00Z,30.3085,-88.1395,94.5,1111122 
DISL,ioos:station:DISL:CATA:1,2014-04-03T00:30:00Z,30.3085,-88.1395,95.4,1111122 
DISL,ioos:station:DISL:CATA:1,2014-04-03T01:00:00Z,30.3085,-88.1395,95.4,1111122 
DISL,ioos:station:DISL:CATA:1,2014-04-03T01:30:00Z,30.3085,-88.1395,96.2,1111122 
DISL,ioos:station:DISL:CATA:1,2014-04-03T02:00:00Z,30.3085,-88.1395,97.3,1111122 
DISL,ioos:station:DISL:CATA:1,2014-04-03T02:30:00Z,30.3085,-88.1395,97.4,1111122 
DISL,ioos:station:DISL:CATA:1,2014-04-03T03:00:00Z,30.3085,-88.1395,98.1,1111122 
DISL,ioos:station:DISL:CATA:1,2014-04-03T03:30:00Z,30.3085,-88.1395,97.7,1111122 
DISL,ioos:station:DISL:CATA:1,2014-04-03T04:00:00Z,30.3085,-88.1395,97.1,1111122 
DISL,ioos:station:DISL:CATA:1,2014-04-03T04:30:00Z,30.3085,-88.1395,96.9,1111122 
DISL,ioos:station:DISL:CATA:1,2014-04-03T05:00:00Z,30.3085,-88.1395,96.0,1111122 
DISL,ioos:station:DISL:CATA:1,2014-04-03T05:30:00Z,30.3085,-88.1395,96.3,1111122 
DISL,ioos:station:DISL:CATA:1,2014-04-03T06:30:00Z,30.3085,-88.1395,97.3,1111122 
DISL,ioos:station:DISL:CATA:1,2014-04-03T07:00:00Z,30.3085,-88.1395,97.7,1111122 
DISL,ioos:station:DISL:CATA:1,2014-04-03T07:30:00Z,30.3085,-88.1395,98.2,1111122 
DISL,ioos:station:DISL:CATA:1,2014-04-03T08:00:00Z,30.3085,-88.1395,98.1,1111122 
DISL,ioos:station:DISL:CATA:1,2014-04-03T08:30:00Z,30.3085,-88.1395,98.1,1111122 
DISL,ioos:station:DISL:CATA:1,2014-04-03T09:00:00Z,30.3085,-88.1395,98.2,1111122 
DISL,ioos:station:DISL:CATA:1,2014-04-03T09:30:00Z,30.3085,-88.1395,97.9,1111122 
DISL,ioos:station:DISL:CATA:1,2014-04-03T10:00:00Z,30.3085,-88.1395,98.1,1111122 
DISL,ioos:station:DISL:CATA:1,2014-04-03T10:30:00Z,30.3085,-88.1395,98.2,1111122 
DISL,ioos:station:DISL:CATA:1,2014-04-03T11:00:00Z,30.3085,-88.1395,98.1,1111122 
DISL,ioos:station:DISL:CATA:1,2014-04-03T11:30:00Z,30.3085,-88.1395,98.8,1111122 
DISL,ioos:station:DISL:CATA:1,2014-04-03T12:00:00Z,30.3085,-88.1395,98.9,1111122 
DISL,ioos:station:DISL:CATA:1,2014-04-03T12:30:00Z,30.3085,-88.1395,97.3,1111122 
DISL,ioos:station:DISL:CATA:1,2014-04-03T13:00:00Z,30.3085,-88.1395,96.6,1111122 
DISL,ioos:station:DISL:CATA:1,2014-04-03T13:30:00Z,30.3085,-88.1395,96.1,1111122 
DISL,ioos:station:DISL:CATA:1,2014-04-03T14:00:00Z,30.3085,-88.1395,94.4,1111122 
DISL,ioos:station:DISL:CATA:1,2014-04-03T14:30:00Z,30.3085,-88.1395,86.2,1111122 
DISL,ioos:station:DISL:CATA:1,2014-04-03T15:00:00Z,30.3085,-88.1395,82.4,1111122 
DISL,ioos:station:DISL:CATA:1,2014-04-03T15:30:00Z,30.3085,-88.1395,82.2,1111122 
DISL,ioos:station:DISL:CATA:1,2014-04-03T16:00:00Z,30.3085,-88.1395,81.6,1111122 
DISL,ioos:station:DISL:CATA:1,2014-04-03T16:30:00Z,30.3085,-88.1395,77.9,1111122 
DISL,ioos:station:DISL:CATA:1,2014-04-03T17:00:00Z,30.3085,-88.1395,78.27,1111122 
DISL,ioos:station:DISL:CATA:1,2014-04-03T17:30:00Z,30.3085,-88.1395,73.41,1111122 
DISL,ioos:station:DISL:CATA:1,2014-04-03T18:00:00Z,30.3085,-88.1395,71.8,1111122 
DISL,ioos:station:DISL:CATA:1,2014-04-03T18:30:00Z,30.3085,-88.1395,71.76,1111122 
DISL,ioos:station:DISL:CATA:1,2014-04-03T19:00:00Z,30.3085,-88.1395,72.86,1111122 
DISL,ioos:station:DISL:CATA:1,2014-04-03T19:30:00Z,30.3085,-88.1395,70.94,1111122 
DISL,ioos:station:DISL:CATA:1,2014-04-03T20:00:00Z,30.3085,-88.1395,70.59,1111122 
DISL,ioos:station:DISL:CATA:1,2014-04-03T20:30:00Z,30.3085,-88.1395,70.86,1111122 
DISL,ioos:station:DISL:CATA:1,2014-04-03T21:00:00Z,30.3085,-88.1395,76.31,1111122 
DISL,ioos:station:DISL:CATA:1,2014-04-03T21:30:00Z,30.3085,-88.1395,80.1,1111122 
DISL,ioos:station:DISL:CATA:1,2014-04-03T22:00:00Z,30.3085,-88.1395,80.9,1111122 
DISL,ioos:station:DISL:CATA:1,2014-04-03T22:30:00Z,30.3085,-88.1395,78.82,1111122 
DISL,ioos:station:DISL:CATA:1,2014-04-03T23:00:00Z,30.3085,-88.1395,80.9,1111122 
DISL,ioos:station:DISL:CATA:1,2014-04-03T23:30:00Z,30.3085,-88.1395,84.7,1111122 
DISL,ioos:station:DISL:CATA:1,2014-04-04T00:00:00Z,30.3085,-88.1395,91.4,1111122 
DISL,ioos:station:DISL:CATA:1,2014-04-04T00:30:00Z,30.3085,-88.1395,95.4,1111122 
DISL,ioos:station:DISL:CATA:1,2014-04-04T01:00:00Z,30.3085,-88.1395,96.1,1111122 
DISL,ioos:station:DISL:CATA:1,2014-04-04T01:30:00Z,30.3085,-88.1395,96.5,1111122 
DISL,ioos:station:DISL:CATA:1,2014-04-04T02:00:00Z,30.3085,-88.1395,96.7,1111122 
DISL,ioos:station:DISL:CATA:1,2014-04-04T02:30:00Z,30.3085,-88.1395,97.3,1111122 
DISL,ioos:station:DISL:CATA:1,2014-04-04T03:00:00Z,30.3085,-88.1395,97.6,1111122 
DISL,ioos:station:DISL:CATA:1,2014-04-04T03:30:00Z,30.3085,-88.1395,96.6,1111122 
DISL,ioos:station:DISL:CATA:1,2014-04-04T04:00:00Z,30.3085,-88.1395,96.6,1111122 
DISL,ioos:station:DISL:CATA:1,2014-04-04T04:30:00Z,30.3085,-88.1395,96.6,1111122 
DISL,ioos:station:DISL:CATA:1,2014-04-04T05:00:00Z,30.3085,-88.1395,97.1,1111122 
DISL,ioos:station:DISL:CATA:1,2014-04-04T05:30:00Z,30.3085,-88.1395,97.6,1111122 
DISL,ioos:station:DISL:CATA:1,2014-04-04T06:30:00Z,30.3085,-88.1395,97.5,1111122 
DISL,ioos:station:DISL:CATA:1,2014-04-04T07:00:00Z,30.3085,-88.1395,98.1,1111122 
DISL,ioos:station:DISL:CATA:1,2014-04-04T07:30:00Z,30.3085,-88.1395,98.2,1111122 
DISL,ioos:station:DISL:CATA:1,2014-04-04T08:00:00Z,30.3085,-88.1395,99.0,1111122 
DISL,ioos:station:DISL:CATA:1,2014-04-04T08:30:00Z,30.3085,-88.1395,99.7,1111122 
DISL,ioos:station:DISL:CATA:1,2014-04-04T09:00:00Z,30.3085,-88.1395,100.0,1111122 
DISL,ioos:station:DISL:CATA:1,2014-04-04T09:30:00Z,30.3085,-88.1395,100.0,1111122 
DISL,ioos:station:DISL:CATA:1,2014-04-04T10:00:00Z,30.3085,-88.1395,100.0,1111122 
DISL,ioos:station:DISL:CATA:1,2014-04-04T10:30:00Z,30.3085,-88.1395,100.0,1111122 
DISL,ioos:station:DISL:CATA:1,2014-04-04T11:00:00Z,30.3085,-88.1395,100.0,1111122 
DISL,ioos:station:DISL:CATA:1,2014-04-04T11:30:00Z,30.3085,-88.1395,100.0,1111122 
DISL,ioos:station:DISL:CATA:1,2014-04-04T12:00:00Z,30.3085,-88.1395,100.0,1111122 
DISL,ioos:station:DISL:CATA:1,2014-04-04T12:30:00Z,30.3085,-88.1395,100.0,1111122 
DISL,ioos:station:DISL:CATA:1,2014-04-04T13:00:00Z,30.3085,-88.1395,100.0,1111122 
DISL,ioos:station:DISL:CATA:1,2014-04-04T13:30:00Z,30.3085,-88.1395,100.0,1111122 
DISL,ioos:station:DISL:CATA:1,2014-04-04T14:00:00Z,30.3085,-88.1395,100.0,1111122 
DISL,ioos:station:DISL:CATA:1,2014-04-04T14:30:00Z,30.3085,-88.1395,96.7,1111122 
DISL,ioos:station:DISL:CATA:1,2014-04-04T15:00:00Z,30.3085,-88.1395,91.4,1111122 
DISL,ioos:station:DISL:CATA:1,2014-04-04T15:30:00Z,30.3085,-88.1395,92.4,1111122 
DISL,ioos:station:DISL:CATA:1,2014-04-04T16:00:00Z,30.3085,-88.1395,85.0,1111122 
DISL,ioos:station:DISL:CATA:1,2014-04-04T16:30:00Z,30.3085,-88.1395,89.4,1111122 
DISL,ioos:station:DISL:CATA:1,2014-04-04T17:00:00Z,30.3085,-88.1395,95.6,1111122 
DISL,ioos:station:DISL:CATA:1,2014-04-04T17:30:00Z,30.3085,-88.1395,96.0,1111122 
DISL,ioos:station:DISL:CATA:1,2014-04-04T18:00:00Z,30.3085,-88.1395,96.3,1111122 
DISL,ioos:station:DISL:CATA:1,2014-04-04T18:30:00Z,30.3085,-88.1395,91.9,1111122 
DISL,ioos:station:DISL:CATA:1,2014-04-04T19:00:00Z,30.3085,-88.1395,93.8,1111122 
DISL,ioos:station:DISL:CATA:1,2014-04-04T19:30:00Z,30.3085,-88.1395,93.8,1111122 
DISL,ioos:station:DISL:CATA:1,2014-04-04T20:00:00Z,30.3085,-88.1395,85.9,1111122 
DISL,ioos:station:DISL:CATA:1,2014-04-04T20:30:00Z,30.3085,-88.1395,82.9,1111122 
DISL,ioos:station:DISL:CATA:1,2014-04-04T21:00:00Z,30.3085,-88.1395,85.9,1111122 
DISL,ioos:station:DISL:CATA:1,2014-04-04T21:30:00Z,30.3085,-88.1395,81.4,1111122 
DISL,ioos:station:DISL:CATA:1,2014-04-04T22:00:00Z,30.3085,-88.1395,79.47,1111122 
DISL,ioos:station:DISL:CATA:1,2014-04-04T22:30:00Z,30.3085,-88.1395,77.9,1111122 
DISL,ioos:station:DISL:CATA:1,2014-04-04T23:00:00Z,30.3085,-88.1395,77.76,1111122 
DISL,ioos:station:DISL:CATA:1,2014-04-04T23:30:00Z,30.3085,-88.1395,80.8,1111122 
DISL,ioos:station:DISL:CATA:1,2014-04-05T00:00:00Z,30.3085,-88.1395,83.9,1111122 
DISL,ioos:station:DISL:CATA:1,2014-04-05T00:30:00Z,30.3085,-88.1395,85.9,1111122 
DISL,ioos:station:DISL:CATA:1,2014-04-05T01:00:00Z,30.3085,-88.1395,88.5,1111122 
DISL,ioos:station:DISL:CATA:1,2014-04-05T01:30:00Z,30.3085,-88.1395,95.2,1111122 
DISL,ioos:station:DISL:CATA:1,2014-04-05T02:00:00Z,30.3085,-88.1395,95.9,1111122 
DISL,ioos:station:DISL:CATA:1,2014-04-05T02:30:00Z,30.3085,-88.1395,98.1,1111122 
DISL,ioos:station:DISL:CATA:1,2014-04-05T03:00:00Z,30.3085,-88.1395,98.0,1111122 
DISL,ioos:station:DISL:CATA:1,2014-04-05T03:30:00Z,30.3085,-88.1395,98.9,1111122 
DISL,ioos:station:DISL:CATA:1,2014-04-05T04:00:00Z,30.3085,-88.1395,99.5,1111122 
DISL,ioos:station:DISL:CATA:1,2014-04-05T04:30:00Z,30.3085,-88.1395,99.2,1111122 
DISL,ioos:station:DISL:CATA:1,2014-04-05T05:00:00Z,30.3085,-88.1395,99.5,1111122 
DISL,ioos:station:DISL:CATA:1,2014-04-05T05:30:00Z,30.3085,-88.1395,98.4,1111122 
DISL,ioos:station:DISL:CATA:1,2014-04-05T06:30:00Z,30.3085,-88.1395,98.9,1111122 
DISL,ioos:station:DISL:CATA:1,2014-04-05T07:00:00Z,30.3085,-88.1395,99.1,1111122 
DISL,ioos:station:DISL:CATA:1,2014-04-05T07:30:00Z,30.3085,-88.1395,99.6,1111122 
DISL,ioos:station:DISL:CATA:1,2014-04-05T08:00:00Z,30.3085,-88.1395,99.5,1111122 
DISL,ioos:station:DISL:CATA:1,2014-04-05T08:30:00Z,30.3085,-88.1395,90.7,1111122 
DISL,ioos:station:DISL:CATA:1,2014-04-05T09:00:00Z,30.3085,-88.1395,97.2,1111122 
DISL,ioos:station:DISL:CATA:1,2014-04-05T09:30:00Z,30.3085,-88.1395,82.2,1111122 
DISL,ioos:station:DISL:CATA:1,2014-04-05T10:00:00Z,30.3085,-88.1395,94.5,1111122 
DISL,ioos:station:DISL:CATA:1,2014-04-05T10:30:00Z,30.3085,-88.1395,94.4,1111122 
DISL,ioos:station:DISL:CATA:1,2014-04-05T11:00:00Z,30.3085,-88.1395,84.4,1111122 
DISL,ioos:station:DISL:CATA:1,2014-04-05T11:30:00Z,30.3085,-88.1395,78.4,1111122 
DISL,ioos:station:DISL:CATA:1,2014-04-05T12:00:00Z,30.3085,-88.1395,77.85,1111122 
DISL,ioos:station:DISL:CATA:1,2014-04-05T12:30:00Z,30.3085,-88.1395,71.37,1111122 
DISL,ioos:station:DISL:CATA:1,2014-04-05T13:00:00Z,30.3085,-88.1395,67.33,1111122 
DISL,ioos:station:DISL:CATA:1,2014-04-05T13:30:00Z,30.3085,-88.1395,68.91,1111122 
DISL,ioos:station:DISL:CATA:1,2014-04-05T14:00:00Z,30.3085,-88.1395,66.27,1111122 
DISL,ioos:station:DISL:CATA:1,2014-04-05T14:30:00Z,30.3085,-88.1395,69.39,1111122 
DISL,ioos:station:DISL:CATA:1,2014-04-05T15:00:00Z,30.3085,-88.1395,69.93,1111122 
DISL,ioos:station:DISL:CATA:1,2014-04-05T15:30:00Z,30.3085,-88.1395,67.47,1111122 
DISL,ioos:station:DISL:CATA:1,2014-04-05T16:00:00Z,30.3085,-88.1395,68.87,1111122 
DISL,ioos:station:DISL:CATA:1,2014-04-05T16:30:00Z,30.3085,-88.1395,67.91,1111122 
DISL,ioos:station:DISL:CATA:1,2014-04-05T17:00:00Z,30.3085,-88.1395,65.17,1111122 
DISL,ioos:station:DISL:CATA:1,2014-04-05T17:30:00Z,30.3085,-88.1395,67.02,1111122 
DISL,ioos:station:DISL:CATA:1,2014-04-05T18:00:00Z,30.3085,-88.1395,66.75,1111122 
DISL,ioos:station:DISL:CATA:1,2014-04-05T18:30:00Z,30.3085,-88.1395,64.11,1111122 
DISL,ioos:station:DISL:CATA:1,2014-04-05T19:00:00Z,30.3085,-88.1395,63.63,1111122 
DISL,ioos:station:DISL:CATA:1,2014-04-05T19:30:00Z,30.3085,-88.1395,77.75,1111122 
DISL,ioos:station:DISL:CATA:1,2014-04-05T20:00:00Z,30.3085,-88.1395,73.84,1111122 
DISL,ioos:station:DISL:CATA:1,2014-04-05T20:30:00Z,30.3085,-88.1395,78.47,1111122 
DISL,ioos:station:DISL:CATA:1,2014-04-05T21:00:00Z,30.3085,-88.1395,75.8,1111122 
DISL,ioos:station:DISL:CATA:1,2014-04-05T21:30:00Z,30.3085,-88.1395,77.55,1111122 
DISL,ioos:station:DISL:CATA:1,2014-04-05T22:00:00Z,30.3085,-88.1395,83.0,1111122 
DISL,ioos:station:DISL:CATA:1,2014-04-05T22:30:00Z,30.3085,-88.1395,81.8,1111122 
DISL,ioos:station:DISL:CATA:1,2014-04-05T23:00:00Z,30.3085,-88.1395,86.6,1111122 
DISL,ioos:station:DISL:CATA:1,2014-04-05T23:30:00Z,30.3085,-88.1395,88.0,1111122 
DISL,ioos:station:DISL:CATA:1,2014-04-06T00:00:00Z,30.3085,-88.1395,89.3,1111122 
DISL,ioos:station:DISL:CATA:1,2014-04-06T00:30:00Z,30.3085,-88.1395,86.9,1111122 
DISL,ioos:station:DISL:CATA:1,2014-04-06T01:00:00Z,30.3085,-88.1395,93.9,1111122 
DISL,ioos:station:DISL:CATA:1,2014-04-06T01:30:00Z,30.3085,-88.1395,83.6,1111122 
DISL,ioos:station:DISL:CATA:1,2014-04-06T02:00:00Z,30.3085,-88.1395,87.0,1111122 
DISL,ioos:station:DISL:CATA:1,2014-04-06T02:30:00Z,30.3085,-88.1395,86.9,1111122 
DISL,ioos:station:DISL:CATA:1,2014-04-06T03:00:00Z,30.3085,-88.1395,86.9,1111122 
DISL,ioos:station:DISL:CATA:1,2014-04-06T03:30:00Z,30.3085,-88.1395,89.2,1111122 
DISL,ioos:station:DISL:CATA:1,2014-04-06T04:00:00Z,30.3085,-88.1395,90.1,1111122 
DISL,ioos:station:DISL:CATA:1,2014-04-06T04:30:00Z,30.3085,-88.1395,93.7,1111122 
DISL,ioos:station:DISL:CATA:1,2014-04-06T05:00:00Z,30.3085,-88.1395,95.9,1111122 
DISL,ioos:station:DISL:CATA:1,2014-04-06T05:30:00Z,30.3085,-88.1395,96.2,1111122 
DISL,ioos:station:DISL:CATA:1,2014-04-06T06:30:00Z,30.3085,-88.1395,97.0,1111122 
DISL,ioos:station:DISL:CATA:1,2014-04-06T07:00:00Z,30.3085,-88.1395,97.9,1111122 
DISL,ioos:station:DISL:CATA:1,2014-04-06T07:30:00Z,30.3085,-88.1395,99.1,1111122 
DISL,ioos:station:DISL:CATA:1,2014-04-06T08:00:00Z,30.3085,-88.1395,100.0,1111122 
DISL,ioos:station:DISL:CATA:1,2014-04-06T08:30:00Z,30.3085,-88.1395,99.8,1111122 
DISL,ioos:station:DISL:CATA:1,2014-04-06T09:00:00Z,30.3085,-88.1395,100.0,1111122 
DISL,ioos:station:DISL:CATA:1,2014-04-06T09:30:00Z,30.3085,-88.1395,100.0,1111122 
DISL,ioos:station:DISL:CATA:1,2014-04-06T10:00:00Z,30.3085,-88.1395,100.0,1111122 
DISL,ioos:station:DISL:CATA:1,2014-04-06T10:30:00Z,30.3085,-88.1395,100.0,1111122 
DISL,ioos:station:DISL:CATA:1,2014-04-06T11:00:00Z,30.3085,-88.1395,100.0,1111122 
DISL,ioos:station:DISL:CATA:1,2014-04-06T11:30:00Z,30.3085,-88.1395,100.0,1111122 
DISL,ioos:station:DISL:CATA:1,2014-04-06T12:00:00Z,30.3085,-88.1395,100.0,1111122 
DISL,ioos:station:DISL:CATA:1,2014-04-06T12:30:00Z,30.3085,-88.1395,100.0,1111122 
DISL,ioos:station:DISL:CATA:1,2014-04-06T13:00:00Z,30.3085,-88.1395,100.0,1111122 
DISL,ioos:station:DISL:CATA:1,2014-04-06T13:30:00Z,30.3085,-88.1395,100.0,1111122 
DISL,ioos:station:DISL:CATA:1,2014-04-06T14:00:00Z,30.3085,-88.1395,98.9,1111122 
DISL,ioos:station:DISL:CATA:1,2014-04-06T14:30:00Z,30.3085,-88.1395,95.7,1111122 
DISL,ioos:station:DISL:CATA:1,2014-04-06T15:00:00Z,30.3085,-88.1395,97.7,1111122 
DISL,ioos:station:DISL:CATA:1,2014-04-06T15:30:00Z,30.3085,-88.1395,97.5,1111122 
DISL,ioos:station:DISL:CATA:1,2014-04-06T16:00:00Z,30.3085,-88.1395,97.3,1111122 
DISL,ioos:station:DISL:CATA:1,2014-04-06T16:30:00Z,30.3085,-88.1395,97.3,1111122 
DISL,ioos:station:DISL:CATA:1,2014-04-06T17:00:00Z,30.3085,-88.1395,98.6,1111122 
DISL,ioos:station:DISL:CATA:1,2014-04-06T17:30:00Z,30.3085,-88.1395,98.4,1111122 
DISL,ioos:station:DISL:CATA:1,2014-04-06T18:00:00Z,30.3085,-88.1395,98.5,1111122 
DISL,ioos:station:DISL:CATA:1,2014-04-06T18:30:00Z,30.3085,-88.1395,100.0,1111122 
DISL,ioos:station:DISL:CATA:1,2014-04-06T19:00:00Z,30.3085,-88.1395,99.8,1111122 
DISL,ioos:station:DISL:CATA:1,2014-04-06T19:30:00Z,30.3085,-88.1395,99.1,1111122 
DISL,ioos:station:DISL:CATA:1,2014-04-06T20:00:00Z,30.3085,-88.1395,98.6,1111122 
DISL,ioos:station:DISL:CATA:1,2014-04-06T20:30:00Z,30.3085,-88.1395,99.7,1111122 
DISL,ioos:station:DISL:CATA:1,2014-04-06T21:00:00Z,30.3085,-88.1395,100.0,1111122 
DISL,ioos:station:DISL:CATA:1,2014-04-06T21:30:00Z,30.3085,-88.1395,100.0,1111122 
DISL,ioos:station:DISL:CATA:1,2014-04-06T22:00:00Z,30.3085,-88.1395,100.0,1111122 
DISL,ioos:station:DISL:CATA:1,2014-04-06T22:30:00Z,30.3085,-88.1395,100.0,1111122 
DISL,ioos:station:DISL:CATA:1,2014-04-06T23:00:00Z,30.3085,-88.1395,100.0,1111122 
DISL,ioos:station:DISL:CATA:1,2014-04-06T23:30:00Z,30.3085,-88.1395,100.0,1111122 
DISL,ioos:station:DISL:CATA:1,2014-04-07T00:00:00Z,30.3085,-88.1395,100.0,1111122 
DISL,ioos:station:DISL:CATA:1,2014-04-07T00:30:00Z,30.3085,-88.1395,100.0,1111122 
DISL,ioos:station:DISL:CATA:1,2014-04-07T01:00:00Z,30.3085,-88.1395,99.6,1111122 
DISL,ioos:station:DISL:CATA:1,2014-04-07T01:30:00Z,30.3085,-88.1395,98.9,1111122 
DISL,ioos:station:DISL:CATA:1,2014-04-07T02:00:00Z,30.3085,-88.1395,99.1,1111122 
DISL,ioos:station:DISL:CATA:1,2014-04-07T02:30:00Z,30.3085,-88.1395,99.8,1111122 
DISL,ioos:station:DISL:CATA:1,2014-04-07T03:00:00Z,30.3085,-88.1395,97.9,1111122 
DISL,ioos:station:DISL:CATA:1,2014-04-07T03:30:00Z,30.3085,-88.1395,98.9,1111122 